Time_in_sec,Mx,My,Mz
1323443397.55262589,-0.45803753,0.05024966,-0.88513923
1323443397.60564351,-0.45846587,0.05100870,-0.88798088
1323443397.65351272,-0.45838305,0.05075150,-0.88656813
1323443397.70484090,-0.45850423,0.05147541,-0.88632429
1323443397.75750136,-0.45806131,0.05146128,-0.88540488
1323443397.80491209,-0.45912239,0.05183822,-0.88572156
1323443397.85259438,-0.45641789,0.05157332,-0.88621032
1323443397.90553403,-0.45912278,0.05065463,-0.88814229
1323443397.95257068,-0.45722583,0.05076521,-0.88906163
1323443398.00555491,-0.45771527,0.04965498,-0.88639575
1323443398.05255079,-0.45959729,0.05147289,-0.88497800
1323443398.10462999,-0.45732400,0.05136403,-0.88843209
1323443398.15349698,-0.45792672,0.04967186,-0.88781387
1323443398.20566201,-0.45860562,0.05028765,-0.88823909
1323443398.25366163,-0.45894259,0.05088513,-0.88723910
1323443398.30552292,-0.45846963,0.05052657,-0.88810551
1323443398.35254002,-0.45689866,0.05074971,-0.88789290
1323443398.40558195,-0.45814437,0.04978719,-0.88705951
1323443398.45264292,-0.45709983,0.05233383,-0.88893807
1323443398.50553107,-0.45569581,0.05278335,-0.88707429
1323443398.55358839,-0.45939350,0.05123949,-0.88598788
1323443398.60463762,-0.45729375,0.05027189,-0.88803905
1323443398.65264940,-0.45794871,0.05064172,-0.88807768
1323443398.70450854,-0.45796356,0.04967887,-0.88845515
1323443398.75257015,-0.45965087,0.04979318,-0.88611954
1323443398.80551171,-0.45699227,0.05074413,-0.88725877
1323443398.85249901,-0.45742500,0.05135985,-0.88792622
1323443398.90537739,-0.45844954,0.05151184,-0.88990134
1323443398.95351291,-0.45612511,0.05098426,-0.88797992
1323443399.00552273,-0.45823908,0.05065020,-0.88860512
1323443399.05660868,-0.45681784,0.04880298,-0.88672394
1323443399.10538864,-0.45622104,0.05175022,-0.89182615
1323443399.15257430,-0.45683992,0.05148619,-0.88904560
1323443399.20552349,-0.45709619,0.05185030,-0.88893443
1323443399.25390792,-0.45767146,0.05114198,-0.88998377
1323443399.30455542,-0.45759711,0.04907577,-0.88894212
1323443399.35355806,-0.45762202,0.05115599,-0.89138752
1323443399.40537024,-0.45898426,0.05127862,-0.89018470
1323443399.45263267,-0.45666951,0.05152399,-0.89287198
1323443399.50555205,-0.45763281,0.05089321,-0.88934064
1323443399.55265188,-0.45647448,0.05003833,-0.88965440
1323443399.60549307,-0.45752820,0.05041386,-0.88984287
1323443399.65352082,-0.45467287,0.05135073,-0.88982052
1323443399.70468831,-0.45620531,0.04991317,-0.88951087
1323443399.75374675,-0.45706773,0.05099992,-0.88854325
1323443399.80601931,-0.45877501,0.04764093,-0.88925231
1323443399.85328746,-0.45666257,0.05111369,-0.88826609
1323443399.90492082,-0.45702463,0.05186009,-0.88995337
1323443399.95302844,-0.45733580,0.05293549,-0.88844395
1323443400.00872803,-0.45735338,0.04965629,-0.88688731
1323443400.05251431,-0.45680228,0.05039265,-0.88852429
1323443400.10513997,-0.45663872,0.05258108,-0.88993728
1323443400.15379500,-0.45737746,0.05064997,-0.88945270
1323443400.20571995,-0.45763645,0.05137673,-0.88934427
1323443400.25265288,-0.45552239,0.04999743,-0.88666129
1323443400.30495048,-0.45670292,0.05256988,-0.88879013
1323443400.35263753,-0.45745707,0.05269376,-0.88832104
1323443400.40553141,-0.45735690,0.05110546,-0.88677001
1323443400.45253348,-0.45594501,0.05024912,-0.88719767
1323443400.50453496,-0.45792824,0.05281056,-0.88745284
1323443400.55349398,-0.45797527,0.04953697,-0.88640922
1323443400.60555577,-0.45589790,0.05180934,-0.88618344
1323443400.65279984,-0.45707843,0.05170279,-0.88637543
1323443400.70552444,-0.45700034,0.05279770,-0.88714606
1323443400.75255132,-0.45715117,0.05159594,-0.88765717
1323443400.80549359,-0.45808887,0.04951177,-0.88385826
1323443400.85254860,-0.45802286,0.05196021,-0.88694054
1323443400.90469337,-0.45694888,0.05182223,-0.88636917
1323443400.95267296,-0.45688108,0.05134990,-0.88751268
1323443401.00168395,-0.45829630,0.05022870,-0.88285202
1323443401.05281043,-0.45730454,0.05000911,-0.88599217
1323443401.10469317,-0.45602453,0.05325855,-0.88594508
1323443401.15358710,-0.45819166,0.05242836,-0.88529110
1323443401.20550942,-0.45691761,0.05157486,-0.88585424
1323443401.25260758,-0.45841968,0.05001080,-0.88503069
1323443401.30455232,-0.45682579,0.05182220,-0.88649023
1323443401.35353827,-0.45820004,0.05158500,-0.88554126
1323443401.40458155,-0.45726490,0.05060510,-0.88522720
1323443401.45354319,-0.45470691,0.05273544,-0.88343984
1323443401.50454235,-0.45786569,0.05231581,-0.88642305
1323443401.55262566,-0.45755687,0.05010763,-0.88357764
1323443401.60553122,-0.45736668,0.05168744,-0.88460124
1323443401.65359092,-0.45705262,0.05218070,-0.88586599
1323443401.70252872,-0.45616800,0.05205538,-0.88632792
1323443401.75370955,-0.45693579,0.05131347,-0.88393569
1323443401.80545354,-0.45955887,0.04929282,-0.88457674
1323443401.85257030,-0.45788595,0.05207825,-0.88680601
1323443401.90554738,-0.45627052,0.05251090,-0.88352412
1323443401.95359707,-0.45782149,0.05230738,-0.88565350
1323443402.00549388,-0.45900929,0.05048887,-0.88391584
1323443402.05352235,-0.45805740,0.05119569,-0.88310152
1323443402.10531378,-0.45659861,0.05264729,-0.88469374
1323443402.15349722,-0.45717025,0.05145544,-0.88573945
1323443402.20708776,-0.45738253,0.04987984,-0.88510060
1323443402.25281215,-0.45910293,0.05048329,-0.88328171
1323443402.30529189,-0.45755312,0.05326876,-0.88538986
1323443402.35323858,-0.45701680,0.05132892,-0.88534659
1323443402.40550900,-0.45855469,0.05061664,-0.88504243
1323443402.45252013,-0.45806879,0.05049704,-0.88565409
1323443402.50514102,-0.45701206,0.05265580,-0.88510007
1323443402.55352950,-0.45872074,0.05072215,-0.88339025
1323443402.60525060,-0.45852703,0.05085279,-0.88453120
1323443402.65327692,-0.45634404,0.05349058,-0.88468581
1323443402.70554543,-0.45610997,0.05216504,-0.88530272
1323443402.75263309,-0.45776197,0.05195734,-0.88692617
1323443402.80551934,-0.45838651,0.05048731,-0.88439304
1323443402.85312891,-0.45782068,0.05122086,-0.88577348
1323443402.90465522,-0.45845449,0.05170735,-0.88542825
1323443402.95305014,-0.45742288,0.05133603,-0.88562465
1323443403.00458336,-0.45700771,0.05012010,-0.88533741
1323443403.06549144,-0.45929128,0.05134072,-0.88419312
1323443403.11254740,-0.45681411,0.05541779,-0.88357478
1323443403.15357232,-0.45874709,0.05422770,-0.88341677
1323443403.20551300,-0.45737225,0.05144709,-0.88472772
1323443403.25266361,-0.45988685,0.05039485,-0.88562542
1323443403.30488372,-0.45804861,0.05244794,-0.88732898
1323443403.35349107,-0.45716360,0.05082721,-0.88343328
1323443403.40565658,-0.45858103,0.05144319,-0.88313204
1323443403.45255828,-0.45737043,0.05120532,-0.88472587
1323443403.50483727,-0.45763212,0.05229472,-0.88462019
1323443403.55255342,-0.45988756,0.04976802,-0.88344753
1323443403.60549092,-0.45814940,0.05169605,-0.88464433
1323443403.65368891,-0.45795912,0.05156251,-0.88361013
1323443403.70220709,-0.45834121,0.05228930,-0.88338059
1323443403.75349212,-0.45863983,0.05242007,-0.88403720
1323443403.80566478,-0.45736378,0.05057709,-0.88241971
1323443403.85257888,-0.45881790,0.05216574,-0.88263881
1323443403.90468359,-0.45779446,0.05288235,-0.88284343
1323443403.95351744,-0.45762819,0.05202913,-0.88231677
1323443404.00554180,-0.45820805,0.04924621,-0.88143378
1323443404.05351043,-0.45905116,0.05240476,-0.88214195
1323443404.10550547,-0.45868120,0.05303149,-0.88468307
1323443404.15356159,-0.45671231,0.05165644,-0.88226378
1323443404.20455503,-0.45920655,0.05180740,-0.88265759
1323443404.25268316,-0.45950973,0.04986357,-0.88138187
1323443404.30552530,-0.45588338,0.05332894,-0.88120741
1323443404.35257173,-0.45890146,0.05179611,-0.88187367
1323443404.40549278,-0.45969334,0.05204789,-0.88204682
1323443404.45357585,-0.45874345,0.05106517,-0.88147622
1323443404.50453877,-0.45675993,0.05140067,-0.88085824
1323443404.55302477,-0.45896846,0.05118191,-0.88085020
1323443404.60458231,-0.45840335,0.05128863,-0.88005280
1323443404.66552091,-0.45724007,0.05369193,-0.87987822
1323443404.70469666,-0.45905510,0.05612404,-0.87948388
1323443404.75254393,-0.45815164,0.05152892,-0.88016850
1323443404.80550957,-0.45932278,0.05043149,-0.87805158
1323443404.85349560,-0.45796227,0.05151626,-0.87913525
1323443404.90557122,-0.45839164,0.05143053,-0.88209873
1323443404.95363712,-0.45769700,0.05165669,-0.88129508
1323443405.00533986,-0.46028116,0.04960519,-0.87899327
1323443405.05256867,-0.45950922,0.05201280,-0.87884021
1323443405.10530663,-0.45976761,0.05240074,-0.88103062
1323443405.15355325,-0.45879924,0.05189734,-0.88007891
1323443405.20552254,-0.45783827,0.05139535,-0.87925541
1323443405.25332904,-0.45866418,0.04957814,-0.87800932
1323443405.30570102,-0.45836210,0.05239056,-0.88146472
1323443405.35791230,-0.45903161,0.05201548,-0.87958109
1323443405.40528154,-0.45942023,0.05165714,-0.87959987
1323443405.45343113,-0.45874771,0.05188752,-0.87918103
1323443405.50516915,-0.45859173,0.05214605,-0.88096422
1323443405.55518842,-0.45983541,0.05019406,-0.87795019
1323443405.60549068,-0.45823970,0.05176370,-0.87940794
1323443405.65364814,-0.45893627,0.05081365,-0.88033438
1323443405.70214677,-0.45781881,0.05271943,-0.87875241
1323443405.75366759,-0.45902961,0.05102601,-0.87740046
1323443405.80552649,-0.46095976,0.05043892,-0.87711877
1323443405.85353184,-0.45891035,0.05225721,-0.87970400
1323443405.90501714,-0.45959076,0.05333270,-0.87783134
1323443405.95354939,-0.45948169,0.05128330,-0.87844998
1323443406.00549436,-0.45995024,0.05007181,-0.87769997
1323443406.05355048,-0.45935106,0.05053416,-0.87626398
1323443406.10454726,-0.45862633,0.05309489,-0.87918299
1323443406.15306973,-0.45759192,0.05064757,-0.87731880
1323443406.20458603,-0.45886627,0.05128314,-0.87905538
1323443406.25288463,-0.46137685,0.05093096,-0.87752879
1323443406.30550408,-0.45832697,0.05359095,-0.88070428
1323443406.35360718,-0.45901859,0.05322008,-0.87920547
1323443406.40552282,-0.45814872,0.05041857,-0.87798697
1323443406.45260620,-0.45934317,0.05190729,-0.88049239
1323443406.50494671,-0.45902798,0.05153195,-0.87957746
1323443406.55684185,-0.45891127,0.04969909,-0.87776804
1323443406.60471630,-0.45881954,0.05165979,-0.88046187
1323443406.65287852,-0.45860180,0.05251011,-0.88109523
1323443406.71349669,-0.45930827,0.05117639,-0.87997383
1323443406.75353861,-0.45842212,0.05404507,-0.87777221
1323443406.80549240,-0.45889482,0.05116788,-0.87956750
1323443406.86551857,-0.45674613,0.05151875,-0.88060266
1323443406.90466976,-0.45920321,0.05455963,-0.87999225
1323443406.95368338,-0.45892558,0.05011079,-0.88250220
1323443407.00568652,-0.45946020,0.04816422,-0.88072777
1323443407.05266023,-0.45914036,0.05082912,-0.88162416
1323443407.10459113,-0.45835039,0.05253246,-0.88351071
1323443407.15270209,-0.45776328,0.05166933,-0.88244951
1323443407.20550990,-0.45903927,0.05179895,-0.88200909
1323443407.25260353,-0.45885566,0.04961463,-0.88134420
1323443407.30566454,-0.45900840,0.05036799,-0.88391495
1323443407.35352182,-0.45758441,0.05083713,-0.88396788
1323443407.40464091,-0.45924842,0.05026960,-0.88584512
1323443407.45334578,-0.45762295,0.05205156,-0.88449007
1323443407.50460649,-0.45924002,0.05111296,-0.88559502
1323443407.55261827,-0.45883295,0.04927161,-0.88325822
1323443407.60552192,-0.45722988,0.05083984,-0.88458771
1323443407.65253329,-0.45892110,0.05121974,-0.88455546
1323443407.70457077,-0.45767358,0.05194050,-0.88538700
1323443407.75351691,-0.45898256,0.05084590,-0.88340551
1323443407.80546904,-0.45727831,0.05167060,-0.88306206
1323443407.85282969,-0.45860612,0.05159211,-0.88581932
1323443407.91326046,-0.45825222,0.05193364,-0.88414025
1323443407.95264411,-0.45782825,0.05542366,-0.88311911
1323443408.00525641,-0.45814225,0.04976336,-0.88475800
1323443408.05252647,-0.45820913,0.05011481,-0.88361353
1323443408.10555124,-0.45750299,0.05123059,-0.88703460
1323443408.15355277,-0.45839599,0.05051254,-0.88682282
1323443408.20462322,-0.45803651,0.05109442,-0.88501740
1323443408.25257182,-0.45800805,0.05024404,-0.88462615
1323443408.30567312,-0.45972058,0.04954163,-0.88509881
1323443408.35253954,-0.45827079,0.05048868,-0.88464236
1323443408.40551305,-0.45827097,0.05123639,-0.88682115
1323443408.45290112,-0.45903239,0.05232732,-0.88635939
1323443408.50555778,-0.45866314,0.04964822,-0.88478577
1323443408.55352569,-0.45798030,0.05144584,-0.88399398
1323443408.60451889,-0.45690653,0.05205557,-0.88560140
1323443408.65264940,-0.45853278,0.05136014,-0.88683641
1323443408.71303272,-0.45809260,0.05170866,-0.88591981
1323443408.75371432,-0.45912391,0.05229791,-0.88342369
1323443408.80502582,-0.45758563,0.05074007,-0.88626856
1323443408.85350299,-0.45684326,0.05218765,-0.88674951
1323443408.90516615,-0.45825624,0.05123359,-0.88656461
1323443408.95352030,-0.45681018,0.05169851,-0.88623279
1323443409.00247765,-0.45719782,0.04950593,-0.88419282
1323443409.05250621,-0.45950943,0.04930682,-0.88598049
1323443409.10552859,-0.45809269,0.05342202,-0.88797760
1323443409.15251255,-0.45852622,0.05244527,-0.88658810
1323443409.20551109,-0.45752499,0.05220044,-0.88729846
1323443409.26451135,-0.45784187,0.05110418,-0.88615739
1323443409.30450535,-0.45801309,0.05483192,-0.88414782
1323443409.35376668,-0.45711163,0.05122628,-0.88701308
1323443409.40551376,-0.45825240,0.05268135,-0.88631904
1323443409.45287561,-0.45880660,0.05112406,-0.88710546
1323443409.50475931,-0.45560029,0.05083381,-0.88564873
1323443409.55253434,-0.45808080,0.05013720,-0.88590789
1323443409.60553360,-0.45879105,0.05271373,-0.88890588
1323443409.65275478,-0.45648158,0.05025767,-0.88748294
1323443409.70465231,-0.45849252,0.05161731,-0.88837022
1323443409.76560664,-0.45816252,0.04952581,-0.88514096
1323443409.80566645,-0.45927081,0.05350956,-0.88356823
1323443409.85263443,-0.45845923,0.05305947,-0.88761163
1323443409.90476274,-0.45691791,0.05135692,-0.88815403
1323443409.96567583,-0.45723188,0.05182931,-0.88676828
1323443410.00160050,-0.45789745,0.05386764,-0.88451815
1323443410.06551957,-0.46015915,0.04969907,-0.88819242
1323443410.10566616,-0.45839030,0.05439755,-0.88851231
1323443410.15350032,-0.45701337,0.05159310,-0.88752168
1323443410.20553279,-0.45770606,0.05209082,-0.88820255
1323443410.25272965,-0.45790645,0.04990941,-0.88743091
1323443410.31355143,-0.45935798,0.05016977,-0.88776821
1323443410.35218310,-0.45777377,0.05352880,-0.88693804
1323443410.40549302,-0.45660666,0.05124717,-0.88954246
1323443410.45308971,-0.45711929,0.05100975,-0.88944107
1323443410.50454593,-0.45987049,0.05089799,-0.88754588
1323443410.55349827,-0.45738482,0.05065138,-0.88958097
1323443410.60506177,-0.45741317,0.05246741,-0.88985121
1323443410.65350389,-0.45888054,0.05092016,-0.89068788
1323443410.70547652,-0.45703846,0.05174202,-0.89020896
1323443410.75255585,-0.45900908,0.05164548,-0.89057225
1323443410.80551052,-0.45740330,0.05017206,-0.88996208
1323443410.86454248,-0.45765218,0.05321378,-0.89165956
1323443410.90716648,-0.45773086,0.05513668,-0.89052695
1323443410.95374274,-0.45712563,0.05185592,-0.88944751
1323443411.00472331,-0.45802346,0.05152434,-0.89154005
1323443411.05257821,-0.45690459,0.05200477,-0.89237696
1323443411.10533452,-0.45697430,0.05175322,-0.89135617
1323443411.15343142,-0.45710576,0.05090989,-0.89148521
1323443411.20560360,-0.45735586,0.05117554,-0.89354646
1323443411.25315928,-0.45850563,0.05212607,-0.89080375
1323443411.30464435,-0.45740914,0.04971377,-0.89238828
1323443411.35365033,-0.45591986,0.05200452,-0.89334565
1323443411.40452576,-0.45720232,0.05201466,-0.89303261
1323443411.45252633,-0.45723650,0.05069339,-0.89379215
1323443411.51317382,-0.45686221,0.05223811,-0.89160919
1323443411.55323720,-0.45785314,0.05405018,-0.89052594
1323443411.60549355,-0.45717931,0.05188957,-0.89264691
1323443411.65351772,-0.45619842,0.05044154,-0.89386117
1323443411.70565081,-0.45750558,0.05178419,-0.89381474
1323443411.75352955,-0.45709670,0.04970108,-0.89147609
1323443411.80465198,-0.45888427,0.05043804,-0.89081246
1323443411.85253072,-0.45708013,0.05213551,-0.89315462
1323443411.90506601,-0.45842692,0.05020317,-0.89193630
1323443411.96463895,-0.45858312,0.05069233,-0.89233196
1323443412.00553536,-0.45836487,0.05369188,-0.89042366
1323443412.05251455,-0.45702204,0.05053180,-0.89007157
1323443412.10554814,-0.45708659,0.05201603,-0.89328194
1323443412.15374613,-0.45542106,0.05212387,-0.89370263
1323443412.20563912,-0.45743769,0.04959850,-0.89290041
1323443412.25255728,-0.45840192,0.04908860,-0.88936996
1323443412.31353831,-0.45679897,0.04969119,-0.89082038
1323443412.35356140,-0.45788977,0.05598849,-0.89092535
1323443412.40198803,-0.45663905,0.04968414,-0.89030015
1323443412.45282173,-0.45788765,0.05251098,-0.89358521
1323443412.50493145,-0.45723087,0.04922039,-0.89160788
1323443412.55356073,-0.45843321,0.04933598,-0.88988489
1323443412.60550690,-0.45692474,0.05273287,-0.89263892
1323443412.65278149,-0.45782319,0.05274011,-0.89243263
1323443412.71254563,-0.45675305,0.05115436,-0.89210683
1323443412.75354099,-0.45741397,0.05355393,-0.88973117
1323443412.80549335,-0.45765895,0.05019736,-0.89214975
1323443412.85249686,-0.45636350,0.05139182,-0.89208710
1323443412.90471172,-0.45548454,0.05006050,-0.89279640
1323443412.95369506,-0.45708364,0.05358468,-0.89303732
1323443413.00569224,-0.45754868,0.05092402,-0.89240462
1323443413.05388212,-0.45775902,0.05007230,-0.89164299
1323443413.10551238,-0.45551652,0.05236005,-0.89307028
1323443413.15366507,-0.45835993,0.05081736,-0.89295983
1323443413.20151615,-0.45690379,0.05091824,-0.89249700
1323443413.25251102,-0.45814413,0.05094380,-0.89371598
1323443413.30458879,-0.45781887,0.05020441,-0.89266998
1323443413.36453032,-0.45766106,0.05022119,-0.89445132
1323443413.40860581,-0.45816925,0.05454640,-0.89144176
1323443413.45255065,-0.45843822,0.05047016,-0.89436799
1323443413.50449634,-0.45660150,0.05030395,-0.89183676
1323443413.55263186,-0.45994675,0.04878663,-0.89367175
1323443413.60552096,-0.45700577,0.05274830,-0.89404982
1323443413.66537714,-0.45657304,0.05213258,-0.89338243
1323443413.70551682,-0.45682496,0.05609368,-0.89048404
1323443413.75353074,-0.45721442,0.05068918,-0.89340734
1323443413.80458570,-0.45768759,0.04911645,-0.89278287
1323443413.85332441,-0.45762777,0.05166334,-0.89369273
1323443413.91251779,-0.45753604,0.05094504,-0.89444965
1323443413.95353270,-0.45684192,0.05515467,-0.89316308
1323443414.00552535,-0.45912248,0.05009788,-0.89274085
1323443414.05249953,-0.45854849,0.04974350,-0.89411312
1323443414.10535598,-0.45753857,0.05323898,-0.89421046
1323443414.15376902,-0.45604882,0.05154626,-0.89565074
1323443414.20864725,-0.45768949,0.05107157,-0.89484251
1323443414.25316286,-0.45746553,0.05011007,-0.89559042
1323443414.30551791,-0.45766842,0.05022259,-0.89457959
1323443414.35342741,-0.45695552,0.05167578,-0.89557362
1323443414.40593028,-0.45713371,0.05045580,-0.89429617
1323443414.45318484,-0.45661914,0.05141711,-0.89427477
1323443414.50479698,-0.45744777,0.04996255,-0.89303142
1323443414.55355072,-0.45935139,0.05048021,-0.89441824
1323443414.60513830,-0.45694917,0.05274038,-0.89498729
1323443414.65251255,-0.45684287,0.05105402,-0.89560848
1323443414.70510411,-0.45815161,0.05167263,-0.89568484
1323443414.75254250,-0.45907924,0.04997253,-0.89393413
1323443414.80552316,-0.45819739,0.04946227,-0.89222032
1323443414.85252142,-0.45695472,0.05250008,-0.89511371
1323443414.90467691,-0.45645443,0.05044685,-0.89571065
1323443414.96498561,-0.45663056,0.05091630,-0.89418983
1323443415.00451469,-0.45742452,0.05367931,-0.89182454
1323443415.05260110,-0.46065995,0.05011340,-0.89427757
1323443415.11258554,-0.45648223,0.05153516,-0.89414024
1323443415.15254641,-0.45707801,0.05479069,-0.89278990
1323443415.20550275,-0.45919439,0.05158351,-0.89607948
1323443415.25283933,-0.45819205,0.05047010,-0.89461017
1323443415.30566287,-0.45809269,0.04996832,-0.89293903
1323443415.35369468,-0.45745623,0.05083255,-0.89533943
1323443415.40554786,-0.45849058,0.05156651,-0.89514577
